Temperature
18 19 19 19 19 19 19 19 19 19 19 19 19 19 19 19 19 18 18 18 18 18 18 18 18 18 18 18 18 18 18 18 18 18 18 17 17 17 17 17 17 17 17
19 19 19 19 19 19 19 19 18 18 18 18 18 18 18 18 18 18 18 18 18 18 18 18 18 18 18 18 18 17 17 18 17 18 17 17 17 17 17 17 17 17 17
19 19 19 19 19 19 19 19 19 19 18 18 18 18 18 18 18 18 18 18 18 18 18 18 18 18 18 18 17 17 17 17 17 17 17 17 17 17 17 17 17 17 17
19 19 19 19 19 19 19 19 19 19 18 18 18 18 18 18 18 18 18 18 18 18 18 18 18 18 18 17 17 17 17 17 17 17 17 17 17 17 17 17 17 17 17
19 19 19 19 19 19 19 19 19 19 19 19 18 18 18 18 18 18 18 18 18 18 18 18 18 18 18 17 17 17 17 17 17 17 17 17 17 17 17 17 17 17 17
19 19 19 19 19 19 19 19 19 19 19 19 19 19 18 18 18 18 18 18 18 18 18 18 18 18 18 17 17 17 17 17 17 17 17 17 17 17 17 17 17 17 17
19 19 19 19 19 19 19 19 19 19 19 19 19 19 19 18 18 18 18 18 18 18 18 18 18 18 18 17 17 17 17 17 18 18 18 17 17 17 17 17 17 17 17
20 19 19 19 19 19 19 19 19 19 19 19 19 19 19 19 18 18 18 18 18 18 18 18 18 18 18 17 17 17 17 17 18 18 18 18 17 17 17 17 17 17 17
20 20 19 19 19 19 19 19 19 19 19 19 19 19 19 18 18 18 18 18 18 18 18 18 18 18 18 18 17 17 17 18 18 18 18 18 18 17 17 17 17 17 17
20 20 20 19 19 19 19 19 19 19 19 19 18 18 18 18 18 18 18 18 18 18 18 18 18 18 18 18 18 18 18 18 18 18 18 18 18 18 17 17 17 17 17
19 19 19 19 19 19 19 19 19 19 19 19 18 18 18 18 18 18 18 18 18 18 18 18 18 18 18 18 18 18 18 18 18 18 18 18 18 18 17 17 17 17 17
19 19 19 19 19 19 19 19 19 19 19 18 18 18 18 18 18 18 18 18 18 18 18 18 18 18 18 18 18 18 18 18 18 18 18 18 18 18 18 17 17 17 17
20 19 19 19 19 19 19 19 19 19 19 18 18 18 18 18 18 18 18 18 18 18 18 18 18 18 18 18 18 18 18 18 18 18 18 18 18 18 18 17 17 17 17
20 20 19 19 19 19 19 19 19 19 19 19 18 18 18 18 18 18 18 18 18 18 18 18 18 18 18 18 18 18 18 18 18 18 18 18 18 18 18 18 17 17 17
20 20 20 19 19 19 19 19 19 19 19 19 19 18 18 18 18 18 18 18 18 18 18 18 18 18 18 18 18 18 18 18 18 18 18 18 18 18 18 18 17 17 17
20 20 20 20 19 19 19 19 19 19 19 19 19 18 18 18 18 18 18 18 18 18 18 18 18 18 18 18 18 18 18 18 18 18 18 18 18 18 18 18 17 17 17
21 21 20 20 20 20 19 19 19 19 19 19 19 19 18 18 18 18 18 18 18 18 18 18 18 18 18 18 18 18 18 18 18 18 18 18 18 18 18 18 17 17 17
21 21 21 20 20 20 20 19 19 19 19 19 19 19 19 19 18 18 18 18 18 18 18 18 18 18 18 18 18 18 18 18 18 18 18 18 18 18 18 18 17 17 17
21 21 21 21 20 20 20 19 19 19 19 19 19 19 18 19 19 19 18 18 18 18 18 18 18 18 18 18 18 18 18 18 18 18 18 18 18 18 18 17 17 17 17
21 21 21 21 20 20 20 19 19 19 19 19 19 19 19 19 19 19 18 18 18 18 18 18 18 18 18 18 18 18 18 18 18 18 18 18 18 18 18 18 18 17 17
22 21 21 21 20 20 20 20 19 19 19 19 19 19 19 19 19 19 19 18 18 18 18 18 18 18 18 18 18 18 18 18 18 18 18 18 18 18 18 18 18 17 17
22 22 21 21 21 21 20 20 20 19 19 19 19 19 19 19 19 19 19 18 18 18 18 18 18 18 18 18 18 18 18 18 18 18 18 18 18 17 17 17 17 17 17
22 22 22 21 21 21 21 20 19 19 19 19 19 19 19 19 19 19 18 18 18 18 18 18 18 18 18 18 18 18 18 18 17 18 18 18 18 17 17 17 17 17 17
23 22 22 22 21 21 20 20 20 20 19 19 19 19 19 19 19 18 18 18 18 18 18 18 18 18 18 18 18 18 18 17 17 17 17 17 17 17 17 17 17 17 17
23 22 22 22 21 21 20 20 20 20 19 19 19 19 19 19 18 18 18 18 18 18 18 18 18 18 18 18 18 18 17 17 17 17 17 17 17 17 17 17 17 17 17
23 22 22 22 21 21 20 20 20 20 19 19 19 19 19 19 18 18 18 18 18 18 18 18 18 18 18 18 17 17 17 17 17 17 17 17 17 17 17 17 17 16 16
Wind_Speed
3 6 12 15 15 16 16 16 16 16 16 17 17 18 18 19 19 19 19 19 20 19 18 19 19 19 19 19 20 19 18 19 18 18 18 18 18 18 18 18 18 16 18
5 8 13 14 15 16 16 16 16 17 18 18 18 18 19 19 19 19 19 19 20 19 19 18 18 18 18 18 18 18 18 18 18 18 18 17 17 16 17 17 16 15 17
7 9 12 14 15 15 16 16 16 17 18 18 18 18 19 19 18 18 18 19 19 19 18 18 17 17 17 17 17 17 17 18 18 17 16 14 14 16 16 17 17 16 16
9 9 12 14 15 15 15 16 16 17 18 18 18 18 18 18 18 18 18 18 19 18 18 17 16 16 16 15 15 15 15 15 16 15 12 12 13 15 16 17 16 16 16
9 10 13 14 15 16 16 15 16 17 17 18 18 18 17 17 17 17 17 18 18 17 17 16 15 15 14 14 13 12 12 13 13 12 11 11 12 15 16 16 16 16 16
8 10 13 15 15 15 15 15 16 17 17 17 17 17 17 17 17 17 17 17 16 16 15 15 14 13 13 12 11 11 12 12 12 10 11 12 12 15 15 16 15 15 15
8 9 13 15 15 15 15 15 15 16 16 16 16 16 16 16 16 16 16 16 15 14 14 13 12 12 11 10 9 10 11 11 11 10 11 12 13 15 15 15 15 14 15
9 9 12 14 15 14 14 15 15 15 16 15 15 15 15 15 14 14 14 14 14 13 12 11 11 10 9 8 8 9 9 10 10 11 10 12 14 15 15 14 14 14 14
10 8 8 11 12 13 14 14 14 14 14 14 14 14 14 14 13 13 13 13 12 11 10 9 9 8 8 7 7 7 7 8 9 10 11 11 14 14 14 14 14 13 13
7 7 7 8 9 10 11 12 12 13 13 13 13 13 13 13 12 11 10 10 10 9 8 7 7 6 5 5 5 6 7 7 8 9 10 12 14 14 14 13 13 13 13
8 5 6 6 7 8 8 10 10 11 11 10 10 11 10 8 8 8 9 8 8 7 6 5 4 4 3 2 3 5 6 6 8 9 10 12 15 14 14 13 13 13 12
8 7 5 6 6 7 7 8 7 7 7 7 7 8 7 6 5 6 7 7 7 6 4 3 3 2 2 2 2 2 5 7 7 9 11 14 15 14 14 14 13 13 13
9 8 7 6 7 6 5 7 5 5 5 5 6 6 6 4 4 4 4 4 3 3 2 2 2 3 3 3 2 3 6 7 7 8 12 16 15 15 14 14 14 13 13
9 8 8 7 6 7 7 5 5 4 4 4 6 8 7 4 4 3 3 3 3 3 2 2 2 2 3 4 3 5 6 7 8 9 12 16 16 15 15 14 14 13 13
8 8 8 7 7 6 6 4 5 5 5 6 6 7 8 5 4 3 3 3 3 3 3 2 1 1 1 1 2 4 5 7 9 10 11 15 15 15 15 15 14 14 14
9 8 7 7 7 7 4 3 3 4 5 5 6 7 8 7 5 4 2 2 2 2 3 2 1 1 0 1 1 2 4 6 8 10 10 12 15 15 15 14 14 14 14
10 9 8 8 7 6 5 4 4 4 5 4 5 7 7 7 6 4 2 2 2 3 2 1 1 1 1 1 1 0 2 4 7 8 9 10 11 13 14 14 14 13 13
10 9 9 8 7 6 5 3 3 3 4 4 5 6 6 7 6 4 2 2 2 2 1 1 1 1 0 0 0 0 1 2 5 7 9 9 9 9 12 13 13 12 12
11 9 8 7 7 6 4 3 3 3 3 3 4 4 5 7 7 5 3 2 1 1 0 1 1 1 1 0 0 1 0 1 3 5 6 8 9 9 10 11 13 12 12
10 9 8 7 6 5 3 2 2 2 1 2 3 3 4 5 6 4 3 2 1 1 0 1 1 1 1 1 0 1 1 1 1 2 4 6 7 9 10 10 10 11 12
10 9 8 8 7 5 3 2 2 1 1 1 2 3 5 5 4 3 2 2 1 1 1 1 1 1 0 1 1 2 2 1 1 2 2 3 4 6 7 9 9 8 8
11 10 10 9 8 7 4 3 3 2 2 2 1 2 4 4 4 3 2 2 1 1 0 0 1 1 0 1 2 1 2 3 2 1 2 3 3 3 4 7 7 8 7
11 11 11 9 8 7 6 3 2 2 1 1 0 1 2 2 3 2 3 2 2 2 1 1 1 2 1 1 1 3 2 2 2 2 1 1 2 2 2 3 5 6 6
12 11 10 9 8 7 6 5 5 4 3 3 2 2 1 1 2 2 2 2 2 1 1 1 1 2 2 1 2 2 2 3 2 1 2 1 1 2 2 2 3 3 5
12 11 9 9 8 7 6 6 5 4 3 2 1 1 1 0 0 1 1 1 1 1 1 1 1 1 1 2 2 1 1 0 1 2 1 2 1 0 1 1 1 1 2
9 9 8 8 7 7 6 6 6 5 4 3 2 2 1 1 0 0 1 1 1 1 1 1 1 1 2 2 1 1 1 1 1 2 2 1 1 1 1 0 1 1 2
Wind_Direction
69 86 86 86 86 87 89 92 94 96 98 100 100 101 101 101 102 103 107 111 112 113 114 114 114 114 116 117 118 120 121 120 119 118 119 119 118 118 119 119 117 117 120
113 98 90 89 89 88 90 93 94 95 100 102 103 103 103 103 104 104 107 111 111 112 113 114 114 115 115 116 117 120 121 119 119 118 119 119 120 120 121 123 121 123 123
103 100 96 93 92 91 92 94 95 98 101 102 102 104 105 105 105 106 108 110 111 113 114 114 114 115 116 117 117 119 120 119 119 118 116 116 119 120 122 124 124 125 125
108 105 103 97 96 94 95 96 99 102 104 105 105 106 107 107 108 108 110 112 113 114 115 115 114 114 115 115 117 120 121 123 120 118 115 119 122 122 123 125 126 128 126
103 107 108 101 98 97 96 99 103 106 108 108 108 108 110 110 110 110 112 115 115 115 116 116 115 114 114 115 117 119 122 122 122 118 117 120 122 126 126 127 127 128 131
104 109 110 104 102 101 99 100 104 108 109 109 110 111 111 111 111 111 113 115 116 116 116 117 117 115 112 112 114 114 122 124 119 119 121 126 129 132 131 131 130 130 132
106 108 112 107 105 103 101 101 105 111 113 113 114 113 113 113 113 113 114 116 117 116 117 119 120 116 114 113 113 114 119 122 121 124 128 133 136 137 136 135 134 134 134
116 113 115 112 109 105 103 103 108 114 116 117 117 118 117 116 116 116 117 119 120 121 121 122 120 120 120 119 116 115 120 124 127 128 133 139 142 142 141 140 140 140 139
122 117 112 114 112 110 108 107 110 116 119 122 122 122 122 122 121 121 122 124 125 126 128 128 125 125 127 131 131 130 128 128 130 137 140 144 149 149 148 147 146 145 145
125 124 122 119 116 116 116 115 114 118 122 125 126 127 128 128 126 127 126 128 129 133 136 135 132 130 131 140 147 141 135 128 130 141 147 155 158 156 154 154 152 152 152
133 139 139 134 134 133 130 126 126 125 125 126 128 131 130 125 127 132 135 138 141 141 145 148 147 144 147 164 169 159 147 141 140 146 157 164 165 163 162 161 159 158 159
151 158 153 152 156 153 140 135 139 136 139 138 138 137 136 140 146 140 143 144 150 152 163 181 198 209 228 247 229 177 156 152 150 158 169 173 172 169 168 168 167 167 168
162 162 164 166 167 162 143 150 160 158 161 163 169 167 157 150 147 143 152 153 160 173 208 240 263 275 270 262 239 184 163 162 166 170 177 177 177 176 176 177 177 176 177
155 160 162 165 162 162 156 159 168 167 170 174 176 175 163 150 152 160 185 200 205 209 218 248 262 272 274 262 226 182 171 169 170 173 180 182 184 183 184 185 185 185 186
150 152 153 152 150 150 149 165 166 173 178 178 171 173 168 157 163 167 187 200 210 209 199 208 241 256 314 319 198 170 165 169 171 174 180 185 187 189 190 192 193 195 195
155 151 145 142 145 141 139 145 148 165 176 175 171 170 168 163 158 156 152 164 184 198 204 186 181 182 71 84 89 155 168 173 175 174 180 188 193 196 197 198 200 202 203
158 153 150 147 142 139 140 145 142 153 155 163 170 167 163 161 154 152 153 164 181 183 171 149 98 82 85 69 61 72 162 168 175 176 179 183 193 202 204 205 207 207 206
157 157 162 155 146 146 143 144 146 147 147 162 166 166 169 168 161 151 159 187 194 170 139 135 136 104 64 69 30 309 121 158 168 178 183 188 193 202 208 209 210 212 213
163 162 164 153 156 156 149 151 147 144 149 164 165 167 175 176 174 161 167 197 189 137 154 187 128 152 176 254 280 278 184 174 186 183 186 191 194 200 204 210 214 216 220
162 161 159 154 163 159 146 128 105 106 134 154 166 175 184 187 183 172 171 191 167 124 209 161 156 161 190 204 280 338 322 228 193 190 193 188 194 202 205 209 218 224 228
161 159 162 165 172 162 147 144 139 166 185 169 184 191 198 201 194 184 167 158 129 154 214 196 143 115 280 117 64 2 348 338 256 210 186 178 195 203 201 210 215 218 230
171 170 172 173 173 174 172 163 163 169 185 184 192 200 205 195 191 179 168 166 170 171 322 318 138 150 254 139 134 92 349 346 340 268 181 179 189 191 193 209 217 218 225
176 177 178 178 176 178 171 147 132 96 59 69 176 217 225 200 192 184 173 177 189 177 208 249 203 173 210 249 181 155 159 233 295 324 281 194 177 153 184 200 207 216 222
185 181 176 175 177 177 168 160 161 169 186 210 193 194 215 222 219 195 182 188 185 170 215 260 212 193 175 236 256 213 188 175 176 296 335 22 163 169 185 203 202 200 210
182 179 177 173 177 177 172 173 172 181 195 193 157 166 200 294 292 192 159 156 175 191 221 279 288 203 182 197 215 222 228 182 153 164 275 315 347 284 184 179 131 142 201
174 171 168 168 176 175 173 173 174 182 190 170 166 167 184 219 283 249 178 193 187 192 223 252 261 239 218 210 201 163 163 172 197 174 203 236 262 312 36 56 90 105 114
Height
1525 1523 1521 1519 1518 1516 1516 1516 1516 1516 1516 1517 1518 1519 1519 1520 1521 1522 1522 1523 1525 1527 1528 1530 1531 1533 1534 1536 1538 1539 1541 1542 1543 1544 1546 1547 1548 1549 1549 1550 1551 1552 1553
1526 1525 1524 1522 1521 1520 1519 1519 1518 1518 1519 1519 1520 1521 1522 1523 1524 1525 1525 1527 1528 1530 1531 1533 1534 1536 1537 1539 1540 1542 1543 1544 1545 1547 1548 1549 1550 1550 1551 1552 1553 1554 1555
1528 1527 1526 1525 1524 1523 1522 1522 1521 1522 1522 1523 1523 1524 1525 1526 1527 1528 1529 1530 1531 1533 1534 1536 1537 1539 1540 1542 1543 1544 1546 1547 1548 1549 1550 1550 1551 1552 1553 1554 1555 1556 1557
1530 1529 1528 1527 1527 1526 1525 1525 1525 1525 1525 1526 1527 1527 1528 1529 1530 1531 1532 1533 1534 1535 1537 1538 1540 1541 1543 1544 1545 1547 1548 1549 1550 1551 1552 1553 1553 1554 1555 1556 1556 1557 1558
1531 1531 1531 1530 1529 1528 1528 1528 1527 1528 1528 1529 1530 1531 1531 1532 1533 1534 1535 1536 1537 1538 1540 1541 1543 1544 1545 1547 1548 1549 1550 1551 1552 1553 1554 1554 1555 1556 1556 1557 1558 1559 1559
1533 1533 1533 1532 1532 1531 1531 1530 1530 1531 1531 1532 1533 1533 1534 1535 1536 1536 1537 1539 1540 1541 1543 1544 1545 1547 1548 1549 1550 1551 1552 1553 1554 1554 1555 1556 1557 1557 1558 1559 1559 1560 1561
1535 1535 1535 1535 1534 1534 1533 1533 1533 1534 1534 1535 1535 1536 1537 1538 1539 1539 1540 1541 1543 1544 1545 1546 1548 1549 1550 1551 1553 1553 1554 1555 1556 1556 1557 1558 1558 1559 1559 1560 1561 1561 1562
1537 1537 1537 1537 1537 1536 1536 1535 1536 1536 1537 1538 1538 1539 1539 1540 1541 1542 1543 1544 1545 1547 1548 1549 1550 1551 1553 1554 1554 1555 1556 1556 1557 1558 1559 1559 1560 1560 1561 1561 1562 1563 1564
1540 1540 1540 1540 1540 1539 1539 1538 1538 1539 1540 1540 1541 1541 1542 1543 1544 1545 1546 1547 1548 1549 1550 1551 1552 1554 1555 1556 1556 1557 1558 1558 1559 1559 1560 1560 1561 1562 1562 1563 1563 1564 1565
1543 1542 1542 1542 1542 1542 1542 1541 1541 1542 1542 1543 1543 1544 1544 1545 1546 1547 1548 1549 1550 1551 1552 1554 1555 1556 1557 1558 1558 1559 1559 1560 1560 1561 1561 1562 1562 1563 1563 1564 1564 1565 1565
1545 1545 1545 1545 1545 1545 1544 1544 1544 1544 1544 1545 1545 1546 1546 1547 1548 1549 1550 1551 1552 1553 1554 1556 1557 1558 1558 1559 1559 1560 1560 1561 1561 1562 1562 1563 1563 1563 1564 1564 1565 1565 1566
1546 1547 1547 1547 1547 1547 1547 1547 1546 1547 1547 1547 1547 1548 1548 1550 1550 1551 1552 1553 1554 1555 1556 1557 1558 1559 1560 1560 1560 1561 1561 1562 1562 1563 1563 1563 1564 1564 1564 1565 1565 1566 1566
1547 1548 1548 1549 1549 1549 1549 1549 1549 1549 1549 1549 1550 1550 1551 1551 1552 1553 1554 1555 1556 1556 1558 1558 1559 1560 1560 1561 1561 1561 1562 1562 1563 1563 1563 1564 1564 1564 1565 1565 1565 1566 1566
1548 1548 1549 1549 1550 1550 1551 1551 1551 1551 1551 1551 1551 1552 1552 1553 1554 1554 1556 1556 1557 1557 1558 1559 1560 1560 1561 1561 1561 1561 1562 1562 1563 1563 1563 1564 1564 1564 1565 1565 1565 1566 1566
1548 1549 1550 1550 1551 1551 1552 1552 1552 1553 1553 1553 1553 1553 1554 1554 1555 1555 1556 1557 1557 1558 1559 1560 1560 1561 1561 1561 1561 1561 1562 1562 1562 1563 1563 1563 1564 1564 1565 1565 1565 1565 1566
1549 1550 1551 1551 1552 1553 1553 1553 1553 1554 1554 1554 1554 1555 1555 1555 1556 1556 1557 1557 1558 1558 1559 1560 1560 1561 1561 1561 1561 1561 1561 1561 1562 1562 1562 1563 1563 1564 1564 1564 1565 1565 1565
1549 1550 1551 1552 1553 1553 1554 1554 1554 1555 1555 1555 1555 1556 1556 1556 1557 1557 1557 1558 1558 1559 1559 1560 1560 1560 1561 1561 1560 1560 1560 1561 1561 1561 1562 1562 1562 1563 1563 1563 1564 1564 1564
1548 1550 1551 1552 1553 1554 1554 1555 1555 1556 1556 1556 1556 1556 1557 1557 1557 1558 1558 1558 1559 1559 1559 1559 1560 1560 1560 1560 1560 1560 1560 1560 1560 1560 1561 1561 1561 1562 1562 1562 1562 1563 1563
1548 1549 1551 1552 1553 1553 1554 1555 1555 1556 1556 1557 1557 1557 1557 1557 1558 1558 1558 1558 1558 1558 1559 1559 1559 1559 1559 1559 1559 1559 1559 1559 1559 1559 1559 1560 1560 1561 1561 1561 1561 1561 1561
1547 1549 1550 1551 1552 1553 1554 1555 1555 1556 1556 1557 1557 1557 1557 1557 1557 1557 1558 1558 1558 1558 1558 1558 1558 1558 1558 1558 1558 1558 1558 1558 1558 1558 1559 1559 1559 1560 1560 1560 1560 1560 1559
1546 1548 1549 1550 1551 1553 1553 1554 1555 1556 1556 1556 1557 1557 1557 1557 1557 1557 1557 1557 1558 1558 1557 1557 1557 1556 1556 1557 1556 1556 1556 1557 1557 1557 1557 1557 1558 1558 1558 1558 1558 1558 1558
1545 1546 1548 1549 1550 1552 1553 1554 1555 1555 1556 1556 1556 1556 1556 1556 1556 1556 1556 1557 1557 1557 1556 1556 1556 1555 1555 1555 1555 1555 1555 1556 1555 1555 1555 1555 1556 1556 1556 1556 1556 1556 1556
1543 1545 1546 1548 1549 1551 1552 1553 1554 1555 1555 1555 1555 1555 1556 1556 1556 1555 1555 1555 1555 1555 1555 1554 1554 1554 1553 1554 1554 1554 1554 1553 1554 1554 1553 1554 1554 1554 1554 1554 1554 1554 1554
1541 1543 1545 1547 1548 1550 1551 1552 1552 1553 1553 1554 1554 1554 1554 1554 1554 1554 1554 1554 1553 1553 1553 1553 1552 1552 1552 1551 1552 1552 1553 1552 1552 1552 1552 1551 1551 1551 1551 1551 1551 1551 1551
1540 1542 1544 1546 1547 1548 1549 1550 1551 1551 1552 1553 1553 1553 1553 1553 1552 1552 1552 1552 1551 1551 1551 1551 1551 1550 1549 1549 1549 1549 1550 1550 1550 1550 1550 1550 1550 1549 1549 1549 1549 1549 1549
1538 1540 1542 1544 1545 1547 1548 1549 1550 1550 1551 1551 1551 1551 1551 1551 1551 1551 1551 1550 1550 1550 1549 1549 1548 1548 1547 1547 1547 1547 1547 1548 1548 1548 1548 1547 1547 1547 1547 1547 1547 1547 1547